SL-14 DEB

基本信息
目录编号:
45310
目录名称:
SL-14 DEB
国际标识:
1991-056AY
轨道中心:
EARTH
物体状态:
在轨
发射日期:
1991-08-15 UTC
轨道信息
数据来源: 国际轨道数据
星历时间: 2026-09-12T00:58:49+0800
半长轴: 7648.459km
偏心率: 0.0100164
轨道倾角: 82.598°
近地点辐角: 228.371°
升交点赤经: 145.394°
平近点角: 130.880°
近地点: 1193.711km
远地点: 1346.933km
周期: 110.948分钟
每日圈数: 12.97902
详细信息
发射场:
PKMTR
轨道高度:
LEO
数据来源:
AOE Integration Group
参考系:
TEME
时间系统:
UTC
历元类型:
SGP4
2D轨道图
3D轨道图
轨道高度分析图
轨道倾角分析图
轨道综合分析图
查看轨道综合分析图